Location: Cruquius
(52.3348°N, 4.6319°E)
Time: 08:24:43
(UTC+00:00)

COBE Rocket - Pass Details

Date: 12 May 2021
Orbit: 679 x 782 km, 97.1° (Epoch: 20 June)

Event Time Altitude Azimuth Distance (km) Brightness Sun altitude
Exits shadow 23:16:39 38° 175° (S) 1,163 4.4 -19.1°
Maximum altitude 23:18:41 81° 257° (WSW) 787 4.0 -19.2°
Drops below altitude 10° 23:23:53 10° 345° (NNW) 2,344 7.7 -19.2°
Sets 23:26:15 0° 347° (NNW) 3,282 8.8 -19.2°
